Regional Weather Roundup
Issued by NWS Jackson, KY

Home | Current Version | Previous Version | Text Only | Print | Product List | Glossary Off
Versions: 1 2 3 4 5 6 7 8 9 10 11 12 13 14 15 16 17 18 19 20 21 22 23 24 25 26 27 28 29 30 31 32 33 34 35 36 37 38 39 40 41 42 43 44 45 46 47 48 49 50

000
ASUS43 KJKL 241110
RWRJKL

EAST KENTUCKY HOURLY WEATHER ROUNDUP
NATIONAL WEATHER SERVICE JACKSON KY
700 AM EDT TUE APR 24 2018

NOTE: "FAIR" INDICATES FEW OR NO CLOUDS BELOW 12,000 FEET WITH
NO SIGNIFICANT WEATHER AND/OR OBSTRUCTIONS TO VISIBILITY.

* THESE REPORTS ARE NOT UNDER NWS QUALITY CONTROL AND MAY NOT
  REPORT WEATHER SUCH AS PRECIPITATION AND FOG.

KYZ079-080-083-085-087-088-110-112-115-119-120-241200
...EASTERN KENTUCKY...

CITY           SKY/WX    TMP DP  RH WIND       PRES   REMARKS
JACKSON        CLOUDY    56  47  71 NE5       29.91S
LONDON         LGT RAIN  52  51  97 N3        29.90S
SOMERSET*      LGT RAIN  52  52 100 E6        29.90S
MONTICELLO*    LGT RAIN  54  52  93 N10       29.89S
WILLIAMSBURG*  CLOUDY    52  52 100 CALM      29.91R
MIDDLESBORO*   RAIN      53  53 100 W3        29.91R
HARLAN APT*    CLOUDY    54  50  86 CALM      29.90R
PIKE CO APT*   CLOUDY    56  46  68 E9        29.94R
BIG SANDY APT* PTSUNNY   56  47  70 E14       29.93F
MOREHEAD APT*  LGT RAIN  52  48  87 NE5G12    29.97R
ASHLAND*       CLOUDY    54  49  83 VRB5      29.98S
$$

KYZ035-036-041-042-044-050-067-078-099-241200
...CENTRAL KENTUCKY...

CITY           SKY/WX    TMP DP  RH WIND       PRES   REMARKS
MT STERLING*   LGT RAIN  50  50 100 E9        29.95S
FLEMING/MASON* RAIN      50  50 100 E10       29.97S
DANVILLE*      LGT RAIN  50  50 100 CALM      29.91R
LEXINGTON      LGT RAIN  52  49  89 NE12      29.92S
FRANKFORT      LGT RAIN  53  49  86 NE6       29.91S
LOUISVILLE     LGT RAIN  54  52  93 NE5       29.92R FOG
GLASGOW*       LGT RAIN  54  53  97 NE3       29.89R
BOWLING GREEN  CLOUDY    56  55  97 CALM      29.90R
$$

KYZ091>093-OHZ055-061-077-WVZ005-015-034-035-042-241200
...SOUTHERN OHIO/WEST VIRGINIA...

CITY           SKY/WX    TMP DP  RH WIND       PRES   REMARKS
COVINGTON      LGT RAIN  52  51  97 E8        29.95S
COLUMBUS       CLOUDY    53  49  86 E14       30.05R
DAYTON         CLOUDY    52  50  93 E16       30.01S
WILMINGTON     CLOUDY    50  50 100 E10       29.99S
HUNTINGTON     CLOUDY    54  47  77 NE8       29.96F
CHARLESTON     LGT RAIN  54  48  80 E8        29.99S
PINEVILLE*     LGT RAIN  55  47  74 MISG      30.04S
BECKLEY        LGT RAIN  48  46  93 E22G29    30.01R
BLUEFIELD      LGT RAIN  47  44  90 E10G21    30.03R
LOGAN CO APT*  CLOUDY    55  48  76 SE9       29.96S
$$

VAZ002-007-008-TNZ017-027-036-066-071-241200
...SOUTHWEST VIRGINIA/EAST TENNESSEE...

CITY           SKY/WX    TMP DP  RH WIND       PRES   REMARKS
WISE*          LGT RAIN  52  46  82 E3        29.95S
JONESVILLE*    CLOUDY    54  50  87 NE5       29.92S
ABINGDON*      MOCLDY    53  48  84 E13       29.95S
BRISTOL        CLOUDY    56  49  77 E7        29.92S
MORRISTOWN*    CLOUDY    55  52  88 E6        29.87R
SEVIERVILLE*   CLOUDY    55  54  94 CALM      29.85R
KNOXVILLE      HVY RAIN  54  54 100 N9        29.85S FOG
LAFOLLETTE*    CLOUDY    54  54 100 CALM      29.93R FOG
OAK RIDGE      RAIN      54  54 100 CALM      29.89R FOG
CROSSVILLE     CLOUDY    53  51  93 CALM      29.89R
NASHVILLE      CLOUDY    57  55  93 N6        29.89R
$$

...KEY TO REMARKS...
VSB - VISIBILITY IN MILES
WCI - WIND CHILL INDEX
HX  - HEAT INDEX

$$



USA.gov is the U.S. government's official web portal to all federal, state and local government web resources and services.